Regional Weather Roundup
Issued by NWS

Home | Current Version | Previous Version | Graphics & Text | Print | Product List | Glossary On
Versions: 1 2 3 4 5 6 7 8 9 10 11 12 13 14 15 16 17 18 19 20 21 22 23 24 25 26 27 28 29 30 31 32 33 34 35 36 37 38 39 40 41 42 43 44 45 46 47 48 49 50
000
ASUS45 KCYS 010410
RWRWY

WYOMING REGIONAL WEATHER ROUNDUP
NATIONAL WEATHER SERVICE CHEYENNE WY
1000 PM MDT TUE JUN 30 2015

NOTE:  "FAIR" INDICATES FEW OR NO CLOUDS BELOW 12,000 FEET
WITH NO SIGNIFICANT WEATHER AND/OR OBSTRUCTIONS TO VISIBILITY.

WYZ001-010500-
YELLOWSTONE NATIONAL PARK

CITY           SKY/WX    TMP DP  RH WIND       PRES   REMARKS
LK YELLOWSTONE   N/A     60  48  64 NW3       30.33R
W YELLOWSTONE  NOT AVBL

$$
WYZ002>013-054>058-071-098>099-010500-
NORTHERN WYOMING

CITY           SKY/WX    TMP DP  RH WIND       PRES   REMARKS
JACKSON        FAIR      64  57  77 CALM      30.22R
CODY           FAIR      75  46  35 W3        30.09R
GREYBULL       FAIR      81  54  39 E6        29.98R
WORLAND        FAIR      75  54  47 S7        30.00R
SHERIDAN       FAIR      73  50  44 VRB3      29.99R
BUFFALO        FAIR      74  49  41 W10       30.08R
GILLETTE       FAIR      68  54  60 CALM      30.01R
HULETT         FAIR      70  61  73 S8        29.99R
NEWCASTLE      FAIR      70  55  60 N6        30.00R

$$
WYZ014>020-022>026-101>103-010500-
CENTRAL WYOMING

CITY           SKY/WX    TMP DP  RH WIND       PRES   REMARKS
BIG PINEY      FAIR      66  49  54 N6        30.28R
PINEDALE       FAIR      63  52  67 W7        30.28R
DUBOIS         FAIR      66  43  42 NW8       30.26R
LANDER         FAIR      66  56  70 E5        30.12R
RIVERTON       FAIR      69  55  60 SW9       30.13R
CASPER         FAIR      65  55  70 W7        30.12R
DOUGLAS        FAIR      66  56  70 CALM      30.09R

$$
WYZ021-027>030-104>119-010500-
SOUTHERN WYOMING

CITY           SKY/WX    TMP DP  RH WIND       PRES   REMARKS
EVANSTON       FAIR      75  46  35 N6        30.27R
KEMMERER       FAIR     N/A N/A N/A N7        30.30R
FORT BRIDGER   CLEAR     75  45  33 NE6       30.30R
ROCK SPRINGS   FAIR      68  52  56 N9        30.24
DIXON          FAIR      66  55  66 E8        30.24R
RAWLINS        RAIN      61  57  87 NE13      30.29R FOG
SARATOGA       FAIR      61  55  82 CALM      30.26F
LARAMIE        FAIR      60  55  83 S13       30.28F
CHEYENNE       LGT RAIN  61  57  87 S9        30.21F
TORRINGTON     FAIR      78  56  46 W8        30.01R
PINE BLUFFS    TSTM      64  61  88 N21G33    30.19R

$$


USA.gov is the U.S. government's official web portal to all federal, state and local government web resources and services.